Date String (YYYY-MM-DD hh:mm:ss) UTC,Instrument flags,absolute air pressure of the measurement (hPa),sample flow rate (lpm),inlet stack bypass flow (lpm),air temperature of the measurement (°C),ambient temperature measured by the external sensor (°C),aerosol sample conditioner tube jacket temperature (°C),OPC LED temperature (°C),internal box temperature (°C),relative humidity of the measurement (%),span deviation,mass concentration of particles derived from Lorenz-Mie calculation of OPC scattering (μg/m³),mass concentration of particles derived from Lorenz-Mie calculation of OPC scattering (μg/m³),mass concentration of particles derived from Lorenz-Mie calculation of OPC scattering (μg/m³)
DateTimeUTC,F1_M11,P_M11,Q1_M11,Q2_M11,T1_M11,T2_M11,T3_M11,T4_M11,T5_M11,U1_M11,ZSPAN_M11,X2_M11,X0_M11,X1_M11
2024-05-24 05:00:00,SystemResetWarning,0823.8,5.00,000.00,028.2,027.4,000.0,036.6,030.0,011.0,0000.0,0003.46,0014.39,0001.35
2024-05-24 05:01:00,SystemResetWarning,0823.8,4.99,000.00,028.3,027.4,000.0,036.6,030.0,010.7,0000.0,0003.52,0015.33,0001.36
2024-05-24 05:02:00,SystemResetWarning,0823.8,5.00,000.00,028.3,027.5,000.0,036.6,030.0,010.3,0000.0,0003.54,0015.08,0001.36
2024-05-24 05:03:00,SystemResetWarning,0823.8,5.00,000.00,028.3,027.5,000.0,036.6,030.0,010.1,0000.0,0003.49,0014.87,0001.33
2024-05-24 05:04:00,SystemResetWarning,0823.7,5.00,000.00,028.3,027.5,000.0,036.6,030.0,010.1,0000.0,0003.47,0015.14,0001.30
2024-05-24 05:05:00,SystemResetWarning,0823.6,5.00,000.00,028.3,027.5,000.0,036.6,030.0,009.5,0000.0,0003.45,0013.87,0001.30
2024-05-24 05:06:00,SystemResetWarning,0823.6,5.02,000.00,028.3,027.5,000.0,036.6,030.0,009.4,0000.0,0003.44,0012.58,0001.28
2024-05-24 05:07:00,SystemResetWarning,0823.7,4.99,000.00,028.3,027.5,000.0,036.6,030.0,009.5,0000.0,0003.45,0012.44,0001.30
2024-05-24 05:08:00,SystemResetWarning,0823.8,5.00,000.00,028.3,027.5,000.0,036.6,030.0,009.6,0000.0,0003.41,0012.84,0001.29
2024-05-24 05:09:00,SystemResetWarning,0823.8,5.00,000.00,028.3,027.5,000.0,036.6,030.1,009.8,0000.0,0003.39,0012.86,0001.28
2024-05-24 05:10:00,SystemResetWarning,0824.0,4.99,000.00,028.3,027.5,000.0,036.6,030.1,010.0,0000.0,0003.36,0012.52,0001.27
2024-05-24 05:11:00,SystemResetWarning,0824.0,5.00,000.00,028.3,027.5,000.0,036.6,030.1,010.5,0000.0,0003.34,0012.29,0001.26
2024-05-24 05:12:00,SystemResetWarning,0824.0,5.00,000.00,028.3,027.5,000.0,036.6,030.0,010.2,0000.0,0003.36,0011.92,0001.24
2024-05-24 05:13:00,SystemResetWarning,0823.9,5.00,000.00,028.3,027.5,000.0,036.6,030.0,010.1,0000.0,0003.34,0012.97,0001.24
2024-05-24 05:14:00,SystemResetWarning,0823.8,5.00,000.00,028.3,027.5,000.0,036.6,030.0,010.1,0000.0,0003.31,0012.43,0001.24
2024-05-24 05:15:00,SystemResetWarning,0823.8,5.01,000.00,028.3,027.5,000.0,036.6,030.1,009.6,0000.0,0003.31,0013.00,0001.24
2024-05-24 05:16:00,SystemResetWarning,0823.8,5.00,000.00,028.3,027.5,000.0,036.6,030.1,009.5,0000.0,0003.26,0012.65,0001.22
2024-05-24 05:17:00,SystemResetWarning,0823.8,5.00,000.00,028.3,027.5,000.0,036.6,030.0,009.7,0000.0,0003.30,0012.89,0001.22
2024-05-24 05:18:00,SystemResetWarning,0823.8,5.01,000.00,028.3,027.5,000.0,036.6,030.0,009.6,0000.0,0003.32,0013.36,0001.20
2024-05-24 05:19:00,SystemResetWarning,0823.9,4.99,000.00,028.3,027.5,000.0,036.6,030.1,009.3,0000.0,0003.34,0014.16,0001.21
2024-05-24 05:20:00,SystemResetWarning,0824.0,4.99,000.00,028.3,027.5,000.0,036.6,030.1,009.5,0000.0,0003.35,0013.82,0001.21
2024-05-24 05:21:00,SystemResetWarning,0823.9,5.01,000.00,028.3,027.5,000.0,036.6,030.1,009.2,0000.0,0003.29,0014.85,0001.21
2024-05-24 05:22:00,SystemResetWarning,0823.8,5.01,000.00,028.3,027.5,000.0,036.6,030.0,008.4,0000.0,0003.27,0015.53,0001.19
2024-05-24 05:23:00,SystemResetWarning,0823.7,4.99,000.00,028.3,027.5,000.0,036.6,030.0,008.3,0000.0,0003.18,0015.31,0001.15
2024-05-24 05:24:00,SystemResetWarning,0823.8,4.99,000.00,028.3,027.5,000.0,036.6,030.0,008.4,0000.0,0003.03,0013.59,0001.11
2024-05-24 05:25:00,SystemResetWarning,0823.8,4.99,000.00,028.3,027.5,000.0,036.6,030.1,008.4,0000.0,0002.98,0013.91,0001.09
2024-05-24 05:26:00,SystemResetWarning,0823.8,4.99,000.00,028.3,027.5,000.0,036.6,030.0,008.4,0000.0,0002.91,0013.63,0001.07
2024-05-24 05:27:00,SystemResetWarning,0823.8,5.01,000.00,028.3,027.5,000.0,036.6,030.0,008.4,0000.0,0002.94,0014.35,0001.06
2024-05-24 05:28:00,SystemResetWarning,0824.0,5.00,000.00,028.3,027.5,000.0,036.6,030.0,008.6,0000.0,0002.82,0014.30,0001.04
2024-05-24 05:29:00,SystemResetWarning,0823.9,5.00,000.00,028.3,027.5,000.0,036.6,030.0,008.3,0000.0,0002.68,0013.82,0001.03
2024-05-24 05:30:00,SystemResetWarning,0823.8,5.00,000.00,028.3,027.5,000.0,036.6,030.0,008.3,0000.0,0002.60,0013.26,0001.01
2024-05-24 05:31:00,SystemResetWarning,0823.4,4.99,000.00,028.3,027.5,000.0,036.6,030.0,008.2,0000.0,0002.54,0014.15,0001.00
2024-05-24 05:32:00,SystemResetWarning,0823.2,5.00,000.00,028.3,027.5,000.0,036.6,030.0,008.6,0000.0,0002.53,0013.77,0000.98
2024-05-24 05:33:00,SystemResetWarning,0823.5,5.01,000.00,028.3,027.4,000.0,036.6,030.0,008.7,0000.0,0002.53,0013.25,0000.98
2024-05-24 05:34:00,SystemResetWarning,0823.7,5.02,000.00,028.3,027.4,000.0,036.6,030.0,008.7,0000.0,0002.52,0012.68,0000.99
2024-05-24 05:35:00,SystemResetWarning,0823.7,5.00,000.00,028.3,027.4,000.0,036.6,030.0,008.7,0000.0,0002.58,0012.99,0000.99
2024-05-24 05:36:00,SystemResetWarning,0823.5,4.99,000.00,028.3,027.4,000.0,036.6,030.0,008.5,0000.0,0002.55,0012.52,0000.99
2024-05-24 05:37:00,SystemResetWarning,0823.7,5.00,000.00,028.3,027.4,000.0,036.6,030.0,008.5,0000.0,0002.50,0012.03,0001.00
2024-05-24 05:38:00,SystemResetWarning,0823.7,4.99,000.00,028.2,027.4,000.0,036.6,030.0,008.5,0000.0,0002.48,0011.55,0001.01
2024-05-24 05:39:00,SystemResetWarning,0823.3,5.00,000.00,028.2,027.4,000.0,036.6,030.0,008.4,0000.0,0002.50,0011.41,0001.01
2024-05-24 05:40:00,SystemResetWarning,0823.4,5.00,000.00,028.2,027.4,000.0,036.6,029.9,008.1,0000.0,0002.48,0011.58,0001.00
2024-05-24 05:41:00,SystemResetWarning,0823.5,5.00,000.00,028.2,027.4,000.0,036.6,030.0,007.0,0000.0,0002.42,0010.74,0000.98
2024-05-24 05:42:00,SystemResetWarning,0823.6,5.00,000.00,028.2,027.4,000.0,036.6,030.0,007.2,0000.0,0002.39,0009.64,0000.97
2024-05-24 05:43:00,SystemResetWarning,0823.6,5.02,000.00,028.2,027.4,000.0,036.6,030.0,007.8,0000.0,0002.44,0009.00,0000.97
2024-05-24 05:44:00,SystemResetWarning,0823.2,5.00,000.00,028.2,027.4,000.0,036.6,030.0,007.2,0000.0,0002.39,0008.41,0000.95
2024-05-24 05:45:00,SystemResetWarning,0823.2,4.98,000.00,028.2,027.4,000.0,036.6,029.9,006.1,0000.0,0002.32,0008.19,0000.93
2024-05-24 05:46:00,SystemResetWarning,0823.4,5.01,000.00,028.2,027.3,000.0,036.6,029.9,006.3,0000.0,0002.23,0007.80,0000.92
2024-05-24 05:47:00,SystemResetWarning,0823.5,5.00,000.00,028.2,027.3,000.0,036.6,029.9,006.4,0000.0,0002.18,0007.67,0000.92
2024-05-24 05:48:00,SystemResetWarning,0823.5,4.99,000.00,028.1,027.3,000.0,036.5,029.9,006.8,0000.0,0002.13,0007.30,0000.90
2024-05-24 05:49:00,SystemResetWarning,0823.6,4.99,000.00,028.1,027.2,000.0,036.5,029.9,007.5,0000.0,0002.11,0007.96,0000.88
2024-05-24 05:50:00,SystemResetWarning,0823.5,5.00,000.00,028.1,027.2,000.0,036.5,029.8,008.0,0000.0,0002.01,0008.17,0000.86
2024-05-24 05:51:00,SystemResetWarning,0823.5,5.00,000.00,028.1,027.2,000.0,036.5,029.8,007.9,0000.0,0002.00,0007.78,0000.86
2024-05-24 05:52:00,SystemResetWarning,0823.5,5.00,000.00,028.1,027.2,000.0,036.5,029.8,007.9,0000.0,0002.00,0007.92,0000.85
2024-05-24 05:53:00,SystemResetWarning,0823.6,5.00,000.00,028.1,027.2,000.0,036.5,029.8,007.9,0000.0,0001.91,0007.92,0000.83
2024-05-24 05:54:00,SystemResetWarning,0823.6,5.00,000.00,028.1,027.2,000.0,036.5,029.8,007.8,0000.0,0001.87,0007.88,0000.82
2024-05-24 05:55:00,SystemResetWarning,0823.4,5.00,000.00,028.1,027.2,000.0,036.5,029.8,007.9,0000.0,0001.85,0007.83,0000.83
2024-05-24 05:56:00,SystemResetWarning,0823.4,4.99,000.00,028.0,027.1,000.0,036.4,029.8,007.7,0000.0,0001.87,0007.89,0000.83
2024-05-24 05:57:00,SystemResetWarning,0823.4,5.00,000.00,028.0,027.1,000.0,036.4,029.7,007.7,0000.0,0001.93,0007.95,0000.83
2024-05-24 05:58:00,SystemResetWarning,0823.3,5.00,000.00,028.0,027.0,000.0,036.4,029.7,007.5,0000.0,0001.96,0007.98,0000.82
2024-05-24 05:59:00,SystemResetWarning,0823.4,5.00,000.00,028.0,027.0,000.0,036.4,029.7,007.5,0000.0,0001.95,0008.02,0000.82
